This is the latest recevied weather packets stored in our database for station/object AA4XD. If no packets are shown the sender has not sent any weather packets the latest 10 day(s).
| Time | Temp. | Humidity | Pressure | Rain* | Wind** | Luminosity | Snow |
|---|---|---|---|---|---|---|---|
| 1777992633 | 27.22° C | 58% | 1015.9 hPa | 0 mm | - | 814 W/m² | - |
| 1777992331 | 27.22° C | 56% | 1015.8 hPa | 0 mm | - | 683 W/m² | - |
| 1777992027 | 27.22° C | 57% | 1015.7 hPa | 0 mm | - | 752 W/m² | - |
| 1777991725 | 27.22° C | 57% | 1015.7 hPa | 0 mm | - | 605 W/m² | - |
| 1777991422 | 26.67° C | 59% | 1015.6 hPa | 0 mm | - | 669 W/m² | - |
| 1777991119 | 27.22° C | 57% | 1015.7 hPa | 0 mm | - | 642 W/m² | - |
| 1777990817 | 27.22° C | 58% | 1015.8 hPa | 0 mm | - | 633 W/m² | - |
| 1777990514 | 26.67° C | 58% | 1015.7 hPa | 0 mm | - | 629 W/m² | - |
| 1777989907 | 26.11° C | 59% | 1015.8 hPa | 0 mm | - | 579 W/m² | - |
| 1777989604 | 26.67° C | 58% | 1015.6 hPa | 0 mm | - | 541 W/m² | - |
| 1777989300 | 26.11° C | 59% | 1015.5 hPa | 0 mm | - | 482 W/m² | - |
| 1777988997 | 26.67° C | 59% | 1015.4 hPa | 0 mm | - | 499 W/m² | - |
| 1777988693 | 26.11° C | 60% | 1015.7 hPa | 0 mm | - | 478 W/m² | - |
| 1777988389 | 25.56° C | 60% | 1015.7 hPa | 0 mm | - | 471 W/m² | - |
| 1777988087 | 25.56° C | 60% | 1015.5 hPa | 0 mm | - | 436 W/m² | - |
| 1777987783 | 25° C | 62% | 1015.5 hPa | 0 mm | - | 417 W/m² | - |
| 1777987479 | 25° C | 64% | 1015.5 hPa | 0 mm | - | 389 W/m² | - |
| 1777987178 | 23.89° C | 64% | 1015.4 hPa | 0 mm | - | 355 W/m² | - |
| 1777986874 | 23.89° C | 63% | 1015.3 hPa | 0 mm | - | 328 W/m² | - |
| 1777986572 | 23.89° C | 64% | 1015.4 hPa | 0 mm | - | 311 W/m² | - |
| 1777986270 | 23.33° C | 65% | 1015.4 hPa | 0 mm | - | 312 W/m² | - |
| 1777985967 | 23.33° C | 66% | 1015.4 hPa | 0 mm | - | 281 W/m² | - |
| 1777985664 | 22.78° C | 67% | 1015.4 hPa | 0 mm | - | 277 W/m² | - |
| 1777985361 | 22.78° C | 68% | 1015.3 hPa | 0 mm | - | 219 W/m² | - |
| 1777985058 | 22.78° C | 67% | 1015.5 hPa | 0 mm | - | 233 W/m² | - |
* Rain latest hour (hover to see other rain measurements)
** Current wind speed in m/s (hover to see current wind gust speed)